Regional Weather Roundup
Issued by NWS Northern Indiana

Home | Current Version | Previous Version | Graphics & Text | Print | Product List | Glossary On
Versions: 1 2 3 4 5 6 7 8 9 10 11 12 13 14 15 16 17 18 19 20 21 22 23 24 25 26 27 28 29 30 31 32 33 34 35 36 37 38 39 40 41 42 43 44 45 46 47 48 49 50
000
ASUS43 KIWX 211501
RWRIWX

KIWX WEATHER ROUNDUP
NATIONAL WEATHER SERVICE NORTHERN INDIANA
1100 AM EDT MON AUG 21 2017

NOTE: "FAIR" INDICATES FEW OR NO CLOUDS BELOW 12,000 FEET WITH NO
SIGNIFICANT WEATHER AND/OR OBSTRUCTIONS TO VISIBILITY.

* THESE STATIONS ARE NOT UNDER NWS QUALITY CONTROL. THEY ALSO MAY NOT
  REPORT WEATHER SUCH AS PRECIPITATION OR FOG.

INZ001>027-211600-
NORTHERN INDIANA

CITY           SKY/WX    TMP DP  RH WIND       PRES   REMARKS
GARY*          PTSUNNY   81  70  69 W10       30.07F
SOUTH BEND     PTSUNNY   79  72  79 SW13      30.08S
ELKHART*       MOSUNNY   81  70  69 SW8       30.08S
GOSHEN         CLOUDY    79  69  71 SW14      30.09
MONTICELLO*    CLOUDY    75  74  95 SW7       30.10R
FORT WAYNE     PTSUNNY   81  68  64 S10       30.11F
PERU/GRISSOM   CLOUDY    77  74  90 SW12      30.10S

$$
INZ028>050-211600-
CENTRAL INDIANA

CITY           SKY/WX    TMP DP  RH WIND       PRES   REMARKS
LAFAYETTE      CLOUDY    77  74  90 SW5       30.09F
KOKOMO*        CLOUDY    78  73  84 SW9       30.12
MUNCIE*        CLOUDY    83  71  67 SW10      30.13S
INDIANAPOLIS   PTSUNNY   85  72  65 SW13      30.12S

$$
MIZ043>046-050>051-056>058-064>065-071>073-077>080-211600-
SOUTHWEST LOWER MICHIGAN

CITY           SKY/WX    TMP DP  RH WIND       PRES   REMARKS
BATTLE CREEK   MOSUNNY   80  69  69 S6        30.09F
BENTON HARBOR  CLOUDY    79  68  69 W12       30.07R
COLDWATER*     SUNNY     83  67  60 SW7       30.10S
HILLSDALE*     CLOUDY    81  66  61 S3        30.11S
HOLLAND        MOSUNNY   79  69  71 SW8       30.07S
GRAND RAPIDS   CLOUDY    78  68  71 VRB3      30.07F
KALAMAZOO      MOSUNNY   82  66  58 VRB6      30.08S
STURGIS*       SUNNY     81  71  70 SW10      30.08F
THREE RIVERS*  FAIR      83  69  63 SW7       30.09R

$$
OHZ001>008-015>018-024>025-211600-
NORTHWEST OHIO

CITY           SKY/WX    TMP DP  RH WIND       PRES   REMARKS
DEFIANCE       MOSUNNY   79  68  69 VRB5      30.11S
FINDLAY        CLOUDY    82  67  60 SW7       30.12R
TOLEDO EXPRESS CLOUDY    79  71  76 S6        30.11R
TOLEDO METCALF CLOUDY    81  69  67 S6        30.12S
LIMA           PTSUNNY   81  68  64 S6        30.14R

$$
AND FOR LAKE MICHIGAN COASTAL AND OPEN LAKE BUOY OBSERVATIONS

STATION/POSITION TEMP    WIND        PRES    VSBY  WAVE
                 AIR SEA DIR/SP/G                  HT/PER
                 (F)     (DEG/KT/KT) (MB)    (MI)  (FT/S)
CALUMET HARBOR    77     240/  6/ 10 1017.6
MICHIGAN CITY     75     200/ 10/ 11   N/A
BURNS HARBOR      76     210/  9/ 13 1018.6S
SAINT JOSEPH      75     230/  7/  8 1019.0
SOUTH LAKE BUOY   72 72  220/  4/  6 1017.5          1
4 MI NW BRIDGMAN  74 74  290/  6/  8 1017.9R         1/ 3
MICHIGAN CITY     75 74  220/ 10/ 12   N/A           1/ 2

$$
&&



USA.gov is the U.S. government's official web portal to all federal, state and local government web resources and services.